COSMOS 2251 DEB, 36533

Orbit data source: Space-Track

COSMOS 2251 DEB, 36533 is space debris in LEO originally from a launch on Wed, 16 Jun 1993 UTC launched from the Plesetsk Missile And Space Complex (PKMTR). The debris from Iridium 33, an American commercial communications satellite, has been tracked extensively since its accidental collision with the defunct Russian satellite Cosmos 2251 in 2009. This event, occurring at high speed in low Earth orbit (LEO), generated thousands of pieces of space debris, significantly increasing the risk of further collisions. The Iridium 33 debris cloud has impacted space traffic management and orbital debris mitigation strategies, making it a subject of ongoing study in space situational awareness.

Loading next visibility...
Identifier
36533, 1993-036BCT
Orbit
LEO
Country
Flag of CISCIS
Related business
Manufacturer
Unknown
Mission
Spacecraft
Bus & Motor
Unknown
Mass
Unknown
Launch date (UTC)
1993-06-16 (33 years ago)
Launch vehicle
Unknown
Launch site
Plesetsk Missile And Space Complex (PKMTR)
Object type
Payload
Rocket body
Debris
Shape & HBR
Unknown shape, 0.1 m
Radar Cross Section
Small (<0.1 m²)

Expand to show TLE details & history
Last TLE update: 2 days ago

TLE from 2 days ago
0 COSMOS 2251 DEB
1 36533U 93036BCT 26207.97941067  .00001334  00000-0  34357-3 0  9997
2 36533  74.0101  49.2083 0047709 143.4010 217.0427 14.50443020877649
Epoch: 2026-07-26T23:30Z
TLE epoch observation values (Epoch: 2026-07-26T23:30:21.081Z)
Latitude
Longitude
111.95089°
Altitude
753.938 km
Speed
7.463 km/s
True Right ascension
03h 16m 49s
True Declination
0° 00' 00"
Sunlit
Object was in daylight at epoch
Visualization orbit readout
Latitude
Unknown
Longitude
Unknown
Altitude
Unknown
Speed
Unknown
Apparent Right ascension
Unknown
Apparent Declination
Unknown
Sunlit
N/A
Visualization observer readout
Local Sidereal Time
09:34:37
Azimuth
Unknown
Elevation
Unknown
Doppler factor
Unknown
Orbital elements
Apogee altitude
755.685 km
Perigee altitude
687.939 km
Semi-major axis
7,099.949 km
Eccentricity
0.00477
Inclination
74.0101°
RAAN
49.2083°
Arg. of periapsis
143.401°
True anomaly
216.71492°
Mean anomaly
217.0427°
Eccentric anomaly
216.87866°
Mean motion
3.62794 °/min
Orbital period
99.23 mins
BSTAR
0.00034357
Loading maneuver chart data...
Computing Atmospheric mass density...

Documentation

Showing up to 5 results
|